Content
SEND FEEDBACK

Daily
Averages
Monthly
Summary
United States of America

EARTH CITY, MISSOURI


Home > North America > United States > Missouri
Elevation: 476 feet     Latitude: 38 46N     Longitude: 090 30W

WEATHER
 
SELECT A DAY
Number of Records: 203,322;   Date Range: 1/1/95 - 7/20/14
 
SHARE

PRINT THIS DATA

[ ← Previous Day ]
WEATHER ALMANAC - FEBRUARY 28, 2013
[ Next Day → ]
[ °C ]   °F
Weather ElementAverageHighLow
Temperature33.5 °F35.6 °F (11:29 am)32 °F (2:51 am)
Dewpoint27.9 °F28.9 °F (9:51 am)26.6 °F (3:51 am)
Humidity80.3 %88 % (10:51 pm)72 % (2:51 pm)
Barometer30.07 in30.14 in (7:51 pm)29.91 in (3:51 am)
Wind Speed9.3 mph13.8 mph (5:51 am)
Wind Gust20.7 mph (11:29 am)
Weather ElementAverage
Visibility5.5 mi
Wind DirectionWNW (298.1 °)

Weather ElementTotal
Precipitation0.06 in
Heating Degree Days31.2 (Base 65)
Averaged from 32 records on February 28, 2013
WEATHER CONDITIONS BREAKOUT
WIND DIRECTION BREAKOUT
WEATHER BY HOUR - FEBRUARY 28, 2013
[ °C ]   °F
Local TimeTemperatureDewpointHumidityBarometerVisibilityWind DirectionWind SpeedGust SpeedPrecipitationEventsConditions
2:51 AM32.0 °F27.0 °F82 %29.93 in8.0 miWNW (290°)9.2 mph0.00 inSnowLight Snow
3:51 AM32.0 °F26.6 °F80 %29.91 in8.0 miWNW (290°)11.5 mphSnowLight Snow
4:51 AM32.0 °F27.0 °F82 %29.96 in7.0 miWNW (290°)12.7 mph0.00 inOvercast
5:51 AM32.0 °F27.0 °F82 %29.98 in7.0 miWNW (290°)13.8 mph19.6 mph0.00 inSnowLight Snow
6:51 AM33.1 °F27.0 °F78 %30.00 in7.0 miWNW (300°)10.4 mph0.00 inSnowLight Snow
7:51 AM33.8 °F28.4 °F81 %29.99 in7.0 miWNW (290°)10.4 mphSnowLight Snow
8:14 AM33.8 °F28.4 °F81 %30.00 in6.0 miWNW (300°)11.5 mph0.00 inSnowLight Snow
8:51 AM33.1 °F28.0 °F82 %30.04 in6.0 miWNW (290°)11.5 mph19.6 mph0.00 inSnowLight Snow
9:51 AM34.0 °F28.9 °F82 %30.05 in7.0 miWNW (300°)12.7 mph0.00 inSnowLight Snow
10:51 AM34.0 °F28.0 °F79 %30.07 in7.0 miWNW (290°)13.8 mph0.00 inSnowLight Snow
11:29 AM35.6 °F28.4 °F75 %30.04 in7.0 miWNW (290°)10.4 mph20.7 mph0.00 inSnowLight Snow
11:51 AM35.1 °F28.0 °F76 %30.08 in7.0 miWNW (290°)13.8 mph0.00 inSnowLight Snow
12:51 PM34.0 °F27.0 °F75 %30.08 in8.0 miWNW (290°)12.7 mph19.6 mph0.00 inSnowLight Snow
1:51 PM34.0 °F27.0 °F75 %30.07 in7.0 miWNW (290°)10.4 mph0.00 inSnowLight Snow
2:51 PM35.1 °F27.0 °F72 %30.09 in8.0 miNW (310°)9.2 mph0.00 inSnowLight Snow
3:51 PM35.1 °F27.0 °F72 %30.10 in9.0 miWNW (300°)9.2 mph0.00 inOvercast
4:51 PM35.1 °F27.0 °F72 %30.11 in9.0 miWNW (290°)11.5 mphOvercast
5:51 PM34.0 °F27.0 °F75 %30.12 in6.0 miNW (320°)8.1 mph0.00 inSnowLight Snow
6:06 PM33.8 °F26.6 °F75 %30.09 in4.0 miWNW (300°)4.6 mph0.00 inSnowLight Snow
6:48 PM33.8 °F28.4 °F81 %30.10 in3.0 miNW (320°)6.9 mph0.00 inSnowLight Snow
6:51 PM33.1 °F28.9 °F85 %30.13 in3.0 miNW (320°)6.9 mph0.00 inSnowLight Snow
7:19 PM33.8 °F28.4 °F81 %30.10 in3.0 miNW (310°)5.8 mph0.00 inSnowLight Snow
7:51 PM33.1 °F28.9 °F85 %30.14 in3.0 miWNW (290°)6.9 mph0.01 inSnowLight Snow
8:22 PM33.8 °F28.4 °F81 %30.10 in4.0 miWNW (300°)5.8 mph0.00 inSnowLight Snow
8:51 PM33.1 °F28.9 °F85 %30.13 in4.0 miWNW (300°)9.2 mph0.00 inSnowLight Snow
9:26 PM33.8 °F28.4 °F81 %30.11 in4.0 miWNW (290°)9.2 mph0.00 inSnowLight Snow
9:51 PM33.1 °F28.9 °F85 %30.14 in4.0 miWNW (300°)5.8 mph0.00 inSnowLight Snow
10:26 PM33.8 °F28.4 °F81 %30.10 in3.0 miWNW (300°)5.8 mph0.01 inSnowLight Snow
10:51 PM32.0 °F28.9 °F88 %30.13 in2.5 miWNW (300°)5.8 mph0.01 inSnowLight Snow
11:31 PM32.0 °F28.4 °F87 %30.10 in2.5 miWNW (290°)6.9 mph0.01 inSnowLight Snow
11:41 PM32.0 °F28.4 °F87 %30.09 in3.0 miWNW (300°)6.9 mph0.01 inSnowLight Snow
11:51 PM32.0 °F28.9 °F88 %30.12 in3.0 miNW (310°)8.1 mph0.01 inSnowLight Snow
Hourly data recorded from KSTL, located miles away from Earth City, Missouri







STORIES FROM OUR PARTNERS